TimeHST,TemperatureF,Dew PointF,Humidity,Sea Level PressureIn,VisibilityMPH,Wind Direction,Wind SpeedMPH,Gust SpeedMPH,PrecipitationIn,Events,Conditions,WindDirDegrees,DateUTC
12:53 AM,77.0,70.0,79,30.09,10.0,ENE,12.7,-,N/A,,Clear,60,2013-09-10 10:53:00
1:53 AM,77.0,71.1,82,30.07,10.0,ENE,11.5,-,N/A,,Scattered Clouds,70,2013-09-10 11:53:00
2:53 AM,78.1,70.0,76,30.06,10.0,ENE,11.5,-,N/A,,Scattered Clouds,60,2013-09-10 12:53:00
3:53 AM,77.0,70.0,79,30.05,10.0,ENE,10.4,-,0.00,,Partly Cloudy,60,2013-09-10 13:53:00
4:53 AM,77.0,70.0,79,30.05,10.0,ENE,12.7,-,N/A,,Scattered Clouds,60,2013-09-10 14:53:00
5:53 AM,77.0,69.1,76,30.06,10.0,ENE,11.5,-,N/A,,Clear,60,2013-09-10 15:53:00
6:53 AM,78.1,69.1,74,30.07,10.0,ENE,11.5,-,N/A,,Partly Cloudy,60,2013-09-10 16:53:00
7:27 AM,78.8,69.8,74,30.08,10.0,NE,13.8,-,N/A,,Partly Cloudy,40,2013-09-10 17:27:00
7:53 AM,80.1,68.0,67,30.08,10.0,NE,11.5,-,N/A,,Clear,50,2013-09-10 17:53:00
8:53 AM,82.0,69.1,65,30.09,10.0,NE,13.8,-,N/A,,Scattered Clouds,50,2013-09-10 18:53:00
9:53 AM,82.9,69.1,63,30.09,10.0,NE,13.8,-,N/A,,Partly Cloudy,50,2013-09-10 19:53:00
10:53 AM,82.9,69.1,63,30.08,10.0,NE,12.7,-,N/A,,Partly Cloudy,50,2013-09-10 20:53:00
11:53 AM,84.9,70.0,61,30.07,10.0,NE,12.7,-,N/A,,Partly Cloudy,50,2013-09-10 21:53:00
12:53 PM,84.0,70.0,63,30.06,10.0,NE,11.5,-,N/A,,Partly Cloudy,40,2013-09-10 22:53:00
1:53 PM,84.0,70.0,63,30.04,10.0,NE,15.0,-,N/A,,Overcast,50,2013-09-10 23:53:00
2:53 PM,82.9,71.1,67,30.03,10.0,NNE,10.4,-,0.00,,Scattered Clouds,30,2013-09-11 00:53:00
3:20 PM,82.4,71.6,70,30.03,10.0,NE,13.8,-,N/A,,Mostly Cloudy,50,2013-09-11 01:20:00
3:53 PM,82.9,71.1,67,30.02,10.0,NE,12.7,-,N/A,,Mostly Cloudy,40,2013-09-11 01:53:00
4:53 PM,81.0,71.1,72,30.03,10.0,NE,11.5,-,N/A,,Mostly Cloudy,40,2013-09-11 02:53:00
5:00 PM,80.6,71.6,74,30.04,10.0,NE,11.5,-,N/A,,Mostly Cloudy,50,2013-09-11 03:00:00
5:43 PM,80.6,71.6,74,30.05,10.0,NE,15.0,-,N/A,,Mostly Cloudy,40,2013-09-11 03:43:00
5:53 PM,81.0,70.0,69,30.05,10.0,NE,13.8,-,N/A,,Mostly Cloudy,50,2013-09-11 03:53:00
6:09 PM,80.6,69.8,70,30.05,10.0,NE,13.8,-,N/A,,Scattered Clouds,50,2013-09-11 04:09:00
6:53 PM,79.0,71.1,77,30.06,10.0,NE,12.7,-,N/A,,Partly Cloudy,50,2013-09-11 04:53:00
7:53 PM,79.0,70.0,74,30.08,10.0,NE,12.7,-,N/A,,Partly Cloudy,50,2013-09-11 05:53:00
8:53 PM,79.0,71.1,77,30.09,10.0,NE,12.7,-,N/A,,Clear,50,2013-09-11 06:53:00
9:29 PM,78.8,71.6,78,30.10,10.0,NE,11.5,-,N/A,,Mostly Cloudy,50,2013-09-11 07:29:00
9:36 PM,78.8,71.6,78,30.10,10.0,NE,10.4,-,N/A,,Scattered Clouds,40,2013-09-11 07:36:00
9:53 PM,79.0,71.1,77,30.10,10.0,NE,13.8,-,N/A,,Clear,40,2013-09-11 07:53:00
10:53 PM,80.1,70.0,71,30.09,10.0,NE,13.8,-,N/A,,Partly Cloudy,50,2013-09-11 08:53:00
11:53 PM,79.0,71.1,77,30.09,10.0,NE,11.5,-,N/A,,Scattered Clouds,50,2013-09-11 09:53:00